Probability
0 0 0 0 0 0 0 0 0 0 1 2 3 3 3 3 3 3 3 2 1 0 0 0 0 0 0 0 0 0 0 0 0 0 0 0 0 0 0 0 0 0 0
0 0 0 0 0 0 0 0 0 0 1 2 3 3 3 3 3 3 3 3 1 0 0 0 0 0 0 0 0 0 0 0 0 0 0 0 0 0 0 0 0 0 0
0 0 0 0 0 0 0 0 0 0 1 2 3 3 3 3 3 3 3 3 2 1 0 0 0 0 0 0 0 0 0 0 0 0 0 0 0 0 0 0 0 0 0
0 0 0 0 0 0 0 0 0 0 0 1 2 3 3 3 3 3 3 3 3 2 1 0 0 0 0 0 0 0 0 0 0 0 0 0 0 0 0 0 0 0 0
0 0 0 0 0 0 0 0 0 0 0 0 1 2 2 3 3 3 3 3 3 3 2 1 0 0 0 0 0 0 0 0 0 0 0 0 0 0 0 0 0 0 0
0 0 0 0 0 0 0 0 0 0 0 0 0 1 1 1 2 3 3 3 3 3 2 1 0 0 0 0 0 0 0 0 0 0 0 0 0 0 0 0 0 0 0
0 0 0 0 0 0 0 0 0 0 1 1 0 0 0 0 1 1 2 3 3 3 3 1 0 0 0 0 0 0 0 0 0 0 0 0 0 0 0 0 0 0 0
0 0 0 0 0 0 0 0 0 0 1 1 1 1 0 0 0 0 1 2 3 3 3 2 1 0 0 0 0 0 0 0 0 0 0 0 0 0 0 0 0 0 0
0 0 0 0 0 0 0 0 0 0 1 1 2 2 1 1 0 0 0 1 2 3 3 2 1 0 0 0 0 0 0 0 0 0 0 0 0 0 0 0 0 0 0
0 0 0 0 0 0 0 0 0 0 0 0 1 2 2 2 1 1 0 0 1 3 3 3 1 0 0 0 0 0 0 0 0 0 0 0 0 0 0 0 0 0 0
0 0 0 0 0 0 0 0 0 0 0 0 0 1 2 2 2 2 1 0 1 2 3 3 2 1 0 0 0 0 0 0 0 0 0 0 0 0 0 0 0 0 0
0 0 0 0 0 0 0 0 0 0 0 0 0 0 1 1 1 1 1 0 0 1 2 4 4 3 2 2 1 1 0 0 0 0 0 0 0 0 0 0 0 0 0
0 0 0 0 0 0 0 0 0 0 0 0 0 0 0 0 0 0 0 0 0 0 1 4 5 5 4 3 3 2 2 1 0 0 0 0 0 0 0 0 0 0 0
0 0 0 0 0 0 0 0 0 0 0 0 0 0 0 0 0 0 0 0 0 0 0 2 4 6 5 4 3 3 3 2 1 1 0 0 0 0 0 0 0 0 0
0 0 0 0 0 0 0 0 0 0 0 0 0 0 0 0 0 0 0 0 0 0 0 0 2 4 5 4 3 3 3 3 3 2 1 0 0 0 0 0 0 0 0
0 0 0 0 0 0 0 0 0 0 0 0 0 0 0 0 0 0 0 0 0 0 0 0 0 2 3 2 1 1 2 2 2 2 1 0 0 0 0 0 0 0 0
0 0 0 0 0 0 0 0 0 0 0 0 0 0 0 0 0 0 0 0 0 0 0 0 0 0 1 0 0 0 1 1 1 1 0 0 0 0 0 0 0 0 0
0 0 0 0 0 0 0 0 0 0 0 0 0 0 0 0 0 0 0 0 0 0 0 0 0 0 0 0 0 0 0 0 0 0 0 0 0 0 0 0 0 0 0
0 0 0 0 0 0 0 0 0 0 0 0 0 0 0 0 0 0 0 0 0 0 0 0 0 0 0 0 0 0 0 0 0 0 0 0 0 0 0 0 0 0 0
0 0 0 0 0 0 0 0 0 0 0 0 0 0 0 0 0 0 0 0 0 0 0 0 0 0 0 0 0 0 0 0 0 0 0 0 0 0 0 0 0 0 0
0 0 0 0 0 0 0 0 0 0 0 0 0 0 0 0 0 0 0 0 0 0 0 0 0 0 0 0 0 0 0 0 0 0 0 0 0 0 0 0 0 0 0
0 0 0 0 0 0 0 0 0 0 0 0 0 0 0 0 0 0 0 0 0 0 0 0 0 0 0 0 0 0 0 0 0 0 0 0 0 0 0 0 0 0 0
0 0 0 0 0 0 0 0 0 0 0 0 0 0 0 0 0 0 0 0 0 0 0 0 0 0 0 0 0 0 0 0 0 0 0 0 0 0 0 0 0 0 0
0 0 0 0 0 0 0 0 0 0 0 0 0 0 0 0 0 0 0 0 0 0 0 0 0 0 0 0 0 0 0 0 0 0 0 0 0 0 0 0 0 0 0
0 0 0 0 0 0 0 0 0 0 0 0 0 0 0 0 0 0 0 0 0 0 0 0 0 0 0 0 0 0 0 0 0 0 0 0 0 0 0 0 0 0 0
0 0 0 0 0 0 0 0 0 0 0 0 0 0 0 0 0 0 0 0 0 0 0 0 0 0 0 0 0 0 0 0 0 0 0 0 0 0 0 0 0 0 0
Wind_Speed
11 9 9 10 9 9 11 12 13 12 9 7 7 8 9 7 6 7 8 10 10 10 10 8 7 8 8 9 8 6 6 6 3 2 4 5 7 9 9 8 7 8 8
8 8 8 8 10 11 12 12 13 12 12 10 8 5 5 5 6 6 8 10 10 11 10 10 8 8 8 8 9 8 5 4 5 4 2 4 5 5 8 7 8 9 6
12 10 9 10 10 11 12 12 13 13 12 11 5 3 3 3 5 7 9 10 11 11 11 11 10 9 9 9 10 10 10 8 6 6 5 4 6 4 3 5 6 7 6
12 10 9 9 11 12 11 12 12 11 10 10 9 11 10 11 11 8 7 8 10 11 12 11 11 10 10 11 10 10 9 9 8 6 7 6 4 3 4 3 3 5 6
12 11 10 10 10 9 8 9 9 9 9 10 11 11 11 11 6 6 7 8 8 11 12 12 11 11 11 11 10 10 11 10 10 8 5 8 7 7 6 7 4 3 4
10 9 8 6 5 4 5 5 6 7 8 9 10 12 13 11 8 8 9 8 7 8 11 12 12 12 11 12 12 11 12 11 11 10 8 7 6 7 8 10 8 6 4
8 7 5 4 4 3 3 4 4 5 5 7 8 10 11 11 12 10 10 9 8 8 10 11 12 12 12 12 11 11 12 13 13 12 10 10 10 5 6 9 8 7 4
6 5 5 4 3 3 2 2 3 2 2 3 5 6 8 7 7 9 8 8 8 8 8 10 12 13 12 12 11 11 12 11 12 13 12 10 9 8 8 7 7 9 7
5 4 2 2 2 2 2 2 2 1 0 1 2 3 4 6 7 6 7 7 7 6 7 9 10 11 12 12 12 11 12 11 12 12 12 11 9 8 8 8 8 9 10
3 2 2 2 2 2 2 2 2 1 1 1 2 2 3 4 5 5 5 6 7 6 6 8 9 9 10 11 12 11 11 12 11 9 11 12 9 8 8 8 8 9 11
3 3 2 2 3 3 3 3 3 2 3 3 2 3 3 3 4 4 5 6 6 6 7 7 7 8 9 9 10 11 10 12 12 11 12 13 10 9 8 8 8 9 9
3 3 3 3 4 4 4 4 4 4 4 3 3 3 4 4 4 5 5 5 6 6 6 6 7 7 8 8 10 11 11 12 12 12 12 13 9 12 9 9 10 9 9
3 3 3 3 3 3 3 4 4 4 4 4 4 4 5 5 5 6 6 6 5 5 5 5 6 6 6 7 8 9 10 11 11 11 11 11 10 11 9 9 9 8 7
3 3 2 2 3 3 3 3 3 3 4 4 4 5 5 5 6 6 6 6 6 6 5 5 5 6 6 6 7 7 8 9 9 9 10 10 10 11 10 9 9 7 8
3 3 2 2 2 2 3 3 3 4 4 4 4 5 5 5 6 6 6 6 6 6 5 5 5 5 4 4 5 6 7 8 9 8 9 9 10 11 10 8 7 8 8
3 2 1 1 2 2 2 3 3 4 4 4 5 5 6 6 6 7 7 6 6 6 5 5 5 5 4 6 6 6 6 7 8 8 7 7 8 10 11 12 11 10 9
3 2 1 1 1 1 2 2 3 4 4 4 5 6 6 6 6 7 7 7 7 6 6 5 5 5 6 7 7 7 6 6 6 7 6 5 5 7 7 8 10 11 12
3 2 1 1 1 2 2 3 3 3 4 4 5 6 6 7 7 6 6 7 6 6 6 6 6 6 6 8 7 7 6 6 6 6 6 6 6 5 6 6 7 7 7
2 2 1 1 2 3 3 3 3 3 4 4 6 6 7 7 7 6 7 6 6 6 5 5 6 6 7 8 8 7 4 5 5 5 5 5 6 6 6 6 6 6 5
2 2 2 2 3 4 4 3 3 4 5 6 7 7 6 6 7 7 6 5 5 5 5 5 5 5 7 8 9 7 4 4 5 4 4 4 6 6 6 6 6 7 6
3 3 3 3 3 4 4 3 4 5 6 7 7 6 6 6 6 6 6 5 5 5 5 5 5 4 5 7 9 7 4 4 4 4 4 3 5 6 7 7 6 7 5
3 3 4 4 4 5 4 4 4 6 7 7 7 7 7 6 6 6 6 5 5 5 5 5 5 4 4 5 7 7 6 5 4 5 4 4 5 7 8 7 6 6 5
3 3 4 4 4 5 4 4 5 6 7 6 6 6 7 6 5 5 6 5 4 4 4 5 5 6 4 4 7 7 7 7 5 4 6 7 7 7 6 5 6 4 3
3 3 3 3 3 4 5 4 5 6 6 6 6 6 6 6 5 4 4 4 4 4 4 5 5 6 5 5 5 4 4 5 4 4 5 6 6 5 4 3 3 3 3
3 3 2 2 3 4 5 5 6 6 5 5 5 5 5 5 5 4 4 5 4 4 4 4 4 5 6 7 9 6 5 4 4 4 4 3 3 3 3 3 2 2 2
3 3 3 3 3 4 4 5 5 5 5 4 5 4 4 4 4 5 5 7 6 8 8 8 7 6 8 11 11 9 8 7 6 3 3 3 3 3 3 3 3 3 3
Wind_Direction
242 236 227 219 213 208 205 205 204 203 193 193 199 206 217 216 215 216 213 211 210 207 209 214 210 208 214 217 212 211 219 225 198 231 275 270 249 244 242 238 238 239 234
252 244 232 218 211 210 208 206 207 203 200 204 202 200 200 211 216 217 220 218 215 212 214 217 216 212 218 219 214 208 215 217 185 189 228 292 298 261 242 235 235 240 235
240 240 231 223 215 214 211 209 209 207 205 202 187 181 186 211 215 220 223 221 219 217 218 219 219 216 217 224 220 213 216 224 209 196 189 217 249 294 280 243 237 237 235
239 238 231 226 219 219 214 212 210 208 204 195 194 196 206 218 222 221 223 219 216 219 219 221 220 221 222 227 223 217 219 220 224 213 218 221 206 237 295 288 258 241 237
237 235 231 226 223 219 212 212 209 208 202 197 201 205 218 227 227 217 222 223 220 221 222 221 221 224 226 228 225 219 219 220 226 219 210 226 234 231 249 275 277 269 246
238 236 234 224 221 213 205 204 204 211 204 201 204 209 219 224 224 223 225 226 226 225 223 222 224 226 226 227 227 224 222 225 227 227 220 212 219 219 227 250 262 261 250
233 233 227 217 212 200 198 196 196 213 209 204 210 216 222 224 227 229 230 228 229 229 226 221 225 228 229 228 225 225 227 227 228 230 231 229 233 222 221 242 259 261 258
224 220 216 206 194 177 169 169 177 202 206 207 220 225 228 229 235 235 233 231 233 234 229 222 225 227 227 228 227 228 229 229 231 233 232 235 235 229 228 234 249 265 263
214 208 199 176 157 143 146 158 155 171 241 249 251 248 241 238 243 245 240 240 240 238 231 227 228 229 228 227 226 229 229 228 230 234 235 238 239 233 233 232 232 250 268
178 149 117 96 90 95 87 83 100 144 274 295 277 276 265 259 258 256 256 253 249 243 239 234 232 232 230 228 227 231 231 230 231 231 233 236 238 237 233 233 233 235 252
157 132 105 81 68 54 50 48 39 24 3 343 327 324 313 299 286 274 268 264 261 252 246 242 238 236 234 231 230 232 230 231 234 231 233 237 234 237 236 234 235 238 241
131 116 103 80 65 54 46 43 32 20 0 352 355 349 339 334 323 307 298 291 279 267 257 251 246 243 240 236 233 235 232 233 235 234 234 238 236 238 239 237 237 239 235
117 95 77 70 63 51 45 42 33 19 8 9 8 2 354 346 333 323 319 314 302 291 279 266 258 254 248 243 239 238 238 237 237 237 237 240 236 240 240 238 240 240 237
130 106 87 72 59 48 41 37 22 15 13 12 11 3 351 343 334 330 329 325 318 308 296 280 268 263 258 252 248 245 245 244 243 240 239 240 236 240 240 239 241 240 240
133 127 122 94 67 47 32 23 10 8 10 9 6 353 343 341 340 339 337 332 327 320 312 304 295 286 273 269 267 259 255 253 253 251 247 244 242 241 239 239 239 236 241
169 155 110 79 55 30 16 8 4 3 8 6 355 348 345 343 342 338 335 333 331 327 323 316 307 300 294 300 288 274 263 258 256 259 258 254 246 245 241 239 237 233 238
185 175 162 122 67 27 7 359 357 1 8 3 352 347 342 338 336 334 334 333 329 327 324 316 312 304 305 312 305 289 275 269 263 263 264 263 258 248 249 246 244 244 241
186 193 152 82 40 32 22 13 10 11 5 358 350 343 338 333 331 332 331 328 324 323 319 319 317 311 314 319 314 305 280 276 275 272 267 266 268 256 249 253 253 253 250
169 161 123 79 39 28 16 21 18 10 5 353 342 335 331 327 325 324 322 322 323 321 320 319 318 314 316 325 322 316 291 284 284 283 276 270 270 263 252 256 260 265 269
107 88 67 62 52 24 18 27 15 4 352 339 329 324 324 320 316 313 312 315 316 313 315 317 318 314 314 326 327 317 293 292 297 299 290 272 268 269 250 249 251 256 262
88 80 77 67 43 24 24 24 11 353 338 330 325 325 325 317 310 308 309 311 314 313 315 315 316 315 312 320 324 318 299 291 293 293 296 294 284 278 266 255 251 249 251
79 74 74 58 38 29 24 16 1 343 336 332 330 328 326 322 320 317 314 313 311 310 314 315 314 313 313 315 318 316 305 302 291 290 293 291 288 287 284 274 257 248 245
80 64 72 64 41 27 21 8 347 341 335 333 330 327 327 327 325 321 317 318 319 314 316 318 317 320 323 318 320 319 314 309 300 290 290 293 293 293 289 274 259 248 234
69 60 64 62 33 16 13 359 343 341 334 329 329 331 331 332 332 326 321 318 317 314 315 316 315 317 321 325 329 321 316 313 308 305 306 303 300 297 293 285 271 251 235
59 51 49 43 20 8 4 356 348 343 339 334 334 333 332 331 330 330 326 319 313 315 313 310 309 313 314 324 326 323 316 311 305 313 313 310 312 311 309 306 298 280 256
56 52 43 32 11 1 355 351 347 345 343 341 339 335 331 330 330 328 325 332 332 338 336 334 328 318 320 325 327 324 323 325 324 320 303 300 295 291 291 291 295 295 284